Regional Weather Roundup
Issued by NWS

Home | Current Version | Previous Version | Graphics & Text | Print | Product List | Glossary On
Versions: 1 2 3 4 5 6 7 8 9 10 11 12 13 14 15 16 17 18 19 20 21 22 23 24 25 26 27 28 29 30 31 32 33 34 35 36 37 38 39 40 41 42 43 44 45 46 47 48 49 50
000
ASUS43 KMKX 180159
RWRWI

WISCONSIN REGIONAL WEATHER ROUNDUP
NATIONAL WEATHER SERVICE MILWAUKEE/SULLIVAN WI
800 PM CST TUE JAN 17 2017

NOTE: "FAIR" INDICATES FEW OR NO CLOUDS BELOW 12,000 FEET WITH NO
SIGNIFICANT WEATHER AND/OR OBSTRUCTIONS TO VISIBILITY.

WIZ001-002-006>008-014>016-023>028-180300-
NORTHWEST WISCONSIN

CITY           SKY/WX    TMP DP  RH WIND       PRES   REMARKS
SUPERIOR ARPT  CLOUDY    28  23  82 SW7       29.91S WCI  20
ASHLAND        CLOUDY    20  19  96 SW3       29.91F
HAYWARD        CLEAR     21  18  88 SW3       29.92S
SIREN          CLOUDY    31  30  96 W6        29.95F FOG     WCI  25
CUMBERLAND     CLEAR     27  25  93 W6        29.94S WCI  20
RICE LAKE      CLEAR     29  26  88 CALM      29.95F
CHETEK         NOT AVBL
LADYSMITH      CLEAR     29  28  96 W3        29.94R
EAU CLAIRE     NOT AVBL
MENOMONIE      CLOUDY    32  31  96 SW7       29.98R FOG     WCI  26
NEW RICHMOND   FOG       32  32 100 W8        29.98R VSB 1   WCI  25
OSCEOLA        CLOUDY    32  32 100 SW8       30.00S FOG     WCI  25
$$

WIZ003>005-009-010-017-018-180300-
NORTH CENTRAL WISCONSIN

CITY           SKY/WX    TMP DP  RH WIND       PRES   REMARKS
MANITOWISH WTR NOT AVBL
ARBOR VITAE      N/A     27  25  95 CALM      29.89S FOG
WOODRUFF         N/A     27  25  95 CALM      29.89S FOG
RHINELANDER    CLEAR     29  27  92 CALM      29.89S
EAGLE RIVER    CLEAR     26  26 100 CALM      29.88S FOG
LAND O LAKES   CLEAR     24  23  97 CALM      29.90S FOG
PHILLIPS       FOG       21  21  98 CALM      29.90R VSB 1/4
TOMAHAWK       CLEAR     28  27  95 CALM      29.91S
MEDFORD        CLEAR     33  31  96 W5        29.90F WCI  28
MERRILL        CLEAR     32  32 100 CALM        N/A  FOG
$$

WIZ029-030-035-036-043>047-180300-
CENTRAL WISCONSIN

CITY           SKY/WX    TMP DP  RH WIND       PRES   REMARKS
WAUSAU         PTCLDY    34  33  96 CALM      29.90S FOG
MOSINEE        MOCLDY    34  34 100 CALM      29.92S FOG
MARSHFIELD     CLEAR     34  32  92 W6        29.91F WCI  29
STEVENS POINT  CLOUDY    32  32 100 S3        29.93S FOG
WAUPACA        CLOUDY    35  33  93 CALM      29.94S FOG
WAUTOMA        CLOUDY    34  34 100 CALM      29.95S FOG
WISC RAPIDS    FOG       33  33 100 SW3       29.95S VSB 3/4
CAMP DOUGLAS   NOT AVBL
$$

WIZ011>013-019>022-031-037>040-048>050-180300-
NORTHEAST WISCONSIN

CITY           SKY/WX    TMP DP  RH WIND       PRES   REMARKS
ANTIGO         FOG       33  33 100 CALM      29.90S VSB 1/2
SHAWANO        CLOUDY    35  33  94 SW3       29.93S FOG
OCONTO         CLOUDY    33  32  99 CALM      29.92S
STURGEON BAY   FOG       32  32 100 N7        29.92R VSB 1/2 WCI  26
GREEN BAY      CLOUDY    35  35 100 NW5       29.94R FOG     WCI  31
MANITOWOC      MIX PCPN  34  32  93 NW8       29.92S FOG     WCI  27
APPLETON         N/A     34  34 100 NW6       29.92R FOG     WCI  29
CLINTONVILLE   CLOUDY    34  32  93 CALM      29.93S FOG
OSHKOSH        FOG       33  32  96 W7        29.94R VSB 3/4 WCI  27
$$

WIZ032>034-041-042-053>061-180300-
SOUTHWEST WISCONSIN

CITY           SKY/WX    TMP DP  RH WIND       PRES   REMARKS
LA CROSSE      MOCLDY    35  32  88 CALM      29.99S FOG
SPARTA         CLOUDY    33  33 100 CALM      29.98S FOG
VIROQUA        CLOUDY    33  33 100 NW7       29.96F VSB 1/4 WCI  26
BOSCOBEL       CLOUDY    34  33  96 S5        30.00S WCI  30
PRAIRIE DU CHI CLOUDY    34  33  96 CALM      30.01S FOG
PLATTEVILLE    CLOUDY    33  33 100 W7        30.00R WCI  27
$$

WIZ056-057-062-063-064-067-068-180300-
SOUTH CENTRAL WISCONSIN

CITY           SKY/WX    TMP DP  RH WIND       PRES   REMARKS
REEDSBURG      NOT AVBL
BARABOO/DELLS  FOG       33  33  99 W6        29.95S VSB 1   WCI  28
LONE ROCK      NOT AVBL
MINERAL POINT  CLOUDY    34  34 100 W8        29.97R WCI  27
MADISON        DRIZZLE   34  32  92 W5        29.97R WCI  30
MIDDLETON      CLOUDY    35  35 100 W6        29.96R WCI  30
WATERTOWN      CLOUDY    33  33 100 W5        29.94R FOG     WCI  28
MONROE         CLOUDY    32  32 100 W12       29.96R WCI  23
JANESVILLE     CLOUDY    36  36 100 W8        29.97R WCI  29
$$

WIZ051-052-058>065-066-070>072-180300-
SOUTHEAST WISCONSIN

CITY           SKY/WX    TMP DP  RH WIND       PRES   REMARKS
MILWAUKEE      CLOUDY    36  33  89 W6        29.93S WCI  31
WAUKESHA       CLOUDY    32  32 100 W8        29.94S FOG     WCI  25
MILWAUKEE/TIMM CLOUDY    34  32  93 W7        29.94S FOG     WCI  28
RACINE         CLOUDY    35  33  92 W7        29.96S WCI  29
KENOSHA        LGT RAIN  34  33  96 W9        29.95R FOG     WCI  27
FOND DU LAC    CLOUDY    34  31  88 NW7       29.94R FOG     WCI  28
SHEBOYGAN      LGT RAIN  34  32  92 NW7       29.92R WCI  28
WEST BEND      CLOUDY    32  32 100 W7        29.92S FOG     WCI  26
JUNEAU         CLOUDY    32  32  99 CALM      29.95R FOG
$$

LSZ147-162-180300-
LAKE SUPERIOR

STATION/POSITION TIME  TEMP    WIND        PRES    WAVE
                       AIR SEA DIR/SP/G            HT/PER
                 (UTC) (F)     (DEG/KT/KT) (MB)    (FT/S)
DEVILS ISLAND    0100   32     190/  7/ 10 1013.3F
PORT WING        0030   25     150/  2/  4 1012.9S
SAXON HARBOR     0030   25     190/  3/  4 1012.9S
$$

LMZ867-665-643>646-180300-
LAKE MICHIGAN

STATION/POSITION TIME  TEMP    WIND        PRES    WAVE
                       AIR SEA DIR/SP/G            HT/PER
                 (UTC) (F)     (DEG/KT/KT) (MB)    (FT/S)
NORTHPORT PIER   0100   33      40/  5/  8 1012.5
SISTER BAY       0120   33        CALM       N/A
KEWAUNEE LAKESHO 0130   33     320/  5/  7 1012.4R
SHEBOYGAN LAKESH 0100   34     290/  8/ 10 1013.2R
PORT WASHINGTON  0040   35     280/  5/  8 1014.2R
MILWAUKEE LAKESH 0130   35     280/ 10/ 12   N/A
KENOSHA   LAKESH 0100   36     270/  6/ 10 1014.2
$$

TC  - TEMPERATURE IN CELSIUS
VSB - VISIBILITY IN STATUTE MILES
WCI - WIND CHILL INDEX
HX  - HEAT INDEX





USA.gov is the U.S. government's official web portal to all federal, state and local government web resources and services.